Temp
11 11 12 11 11 11 10 10 10 10 10 10 9 9 8 8 7 7 7 7 6 6 6 6 5 4 4 4 4 5 5 5 5 5 5 6 6 5 5 7 8 8 8
11 11 11 11 10 10 11 11 10 10 9 9 8 8 8 7 7 7 6 6 6 6 5 5 4 4 3 3 3 2 2 2 2 2 2 3 3 4 3 5 7 8 8
12 11 11 11 11 11 11 10 10 9 9 8 8 7 6 6 6 6 6 6 6 5 4 4 3 3 3 2 2 2 2 2 2 2 2 2 2 2 4 2 4 6 7
12 11 11 10 10 10 10 10 9 9 8 6 6 6 6 5 5 5 5 5 5 4 3 3 3 3 3 2 2 2 2 2 2 1 1 1 1 0 1 2 1 1 5
11 11 10 10 10 10 10 9 9 7 7 6 5 5 5 5 4 4 4 4 3 3 2 2 2 2 2 2 1 1 1 1 1 1 1 0 1 0 -0 0 1 1 1
11 10 10 10 10 9 9 8 7 7 6 5 5 4 4 4 4 4 3 3 3 3 3 2 2 2 1 1 1 0 0 0 0 0 0 0 -1 -1 -1 -1 -0 -0 1
11 11 10 10 9 8 7 7 7 6 6 5 4 4 3 3 3 3 3 3 3 3 2 2 2 1 1 0 0 -1 -0 -0 -1 -1 -1 -1 -1 -1 -1 -1 -1 -1 -0
11 10 9 9 8 7 7 7 6 5 5 4 3 3 3 3 3 2 1 1 1 1 1 1 1 0 0 0 -0 -1 -1 -1 -1 -1 -1 -1 -2 -2 -2 -2 -1 -1 -1
9 9 9 8 8 8 7 7 6 5 4 3 3 3 2 2 2 1 1 1 1 1 1 1 0 -0 -1 -1 -1 -1 -2 -2 -2 -2 -2 -2 -2 -2 -2 -2 -2 -1 -1
9 9 8 8 8 7 6 6 5 4 4 3 3 2 2 1 1 1 0 -0 -0 -0 -0 -0 -0 -1 -1 -1 -1 -2 -2 -2 -2 -3 -3 -3 -3 -3 -2 -2 -2 -2 -2
8 8 8 7 7 6 6 5 5 4 4 3 2 1 1 1 1 0 -1 -1 -1 -1 -1 -1 -1 -1 -1 -2 -2 -2 -2 -3 -3 -3 -4 -4 -4 -3 -3 -3 -3 -3 -2
7 7 6 6 6 6 5 4 4 4 4 2 2 1 1 0 0 -0 -1 -1 -1 -1 -2 -2 -2 -2 -2 -3 -3 -3 -3 -3 -4 -4 -4 -5 -4 -4 -4 -4 -4 -3 -3
6 6 6 6 5 5 5 5 4 3 3 2 1 1 0 -0 -0 -1 -2 -2 -2 -2 -2 -2 -3 -3 -3 -4 -4 -4 -4 -4 -4 -4 -4 -4 -5 -5 -5 -5 -5 -4 -4
6 6 5 5 3 3 4 4 3 2 1 1 0 -0 -0 -1 -1 -1 -2 -3 -3 -3 -3 -4 -4 -4 -4 -4 -4 -4 -4 -5 -5 -5 -5 -6 -6 -7 -6 -6 -6 -5 -5
6 5 4 4 2 3 3 3 2 1 0 -0 -1 -1 -1 -2 -2 -2 -3 -3 -4 -5 -4 -5 -5 -5 -5 -5 -5 -6 -6 -6 -6 -6 -7 -7 -8 -7 -7 -7 -6 -6 -6
6 4 3 1 2 2 2 2 1 0 -0 -1 -1 -2 -3 -3 -3 -3 -4 -4 -4 -5 -5 -5 -5 -5 -6 -6 -6 -7 -7 -7 -7 -7 -8 -8 -8 -8 -7 -7 -7 -7 -6
4 3 3 2 2 2 2 1 0 -0 -1 -1 -2 -3 -3 -3 -4 -4 -4 -5 -5 -5 -5 -6 -6 -6 -6 -7 -7 -7 -8 -8 -8 -8 -8 -8 -8 -8 -7 -7 -7 -7 -7
4 3 2 2 2 1 1 0 -1 -1 -1 -2 -3 -3 -4 -4 -4 -4 -5 -5 -5 -6 -6 -7 -7 -7 -7 -8 -8 -9 -9 -9 -9 -9 -9 -9 -8 -8 -7 -7 -7 -7 -7
2 2 2 2 1 1 0 -1 -1 -1 -2 -2 -3 -3 -4 -4 -4 -5 -5 -6 -6 -6 -7 -7 -8 -8 -8 -8 -9 -9 -9 -9 -9 -9 -9 -8 -8 -8 -8 -8 -7 -7 -7
2 2 1 1 1 0 -1 -1 -1 -2 -2 -2 -3 -4 -4 -4 -5 -5 -6 -6 -7 -7 -8 -8 -8 -8 -9 -9 -10 -10 -10 -10 -9 -9 -9 -9 -9 -8 -8 -8 -7 -7 -7
1 1 0 0 0 -0 -1 -1 -1 -2 -2 -3 -3 -4 -4 -5 -5 -6 -6 -7 -7 -8 -8 -9 -9 -9 -9 -10 -11 -11 -11 -11 -9 -9 -9 -9 -9 -8 -8 -8 -7 -7 -7
-1 -1 1 -0 -0 -1 -1 -2 -2 -2 -3 -4 -4 -4 -4 -5 -5 -6 -7 -8 -8 -8 -9 -9 -9 -10 -10 -11 -11 -11 -11 -11 -11 -9 -10 -8 -8 -8 -8 -8 -8 -8 -7
-1 -1 -0 -1 -1 -1 -1 -2 -2 -3 -3 -4 -4 -5 -5 -5 -6 -7 -7 -8 -8 -9 -9 -9 -9 -10 -10 -11 -11 -11 -11 -11 -10 -10 -10 -9 -8 -8 -8 -8 -8 -7 -7
-1 0 -1 -1 -1 -2 -2 -2 -3 -3 -4 -4 -5 -5 -6 -6 -6 -7 -8 -8 -8 -9 -9 -9 -10 -10 -11 -11 -12 -11 -11 -11 -11 -10 -10 -10 -8 -8 -8 -8 -7 -8 -7
-1 -1 -1 -1 -2 -2 -2 -3 -3 -4 -4 -5 -5 -6 -7 -7 -7 -8 -8 -8 -8 -8 -9 -9 -10 -11 -11 -11 -11 -11 -11 -11 -11 -10 -9 -10 -9 -9 -8 -7 -7 -8 -7
-1 -2 -2 -2 -2 -3 -3 -3 -4 -4 -5 -5 -6 -6 -7 -7 -7 -8 -8 -8 -8 -9 -9 -9 -10 -10 -11 -11 -11 -12 -12 -12 -12 -11 -9 -10 -8 -8 -8 -7 -8 -8 -8
Height
1573 1576 1575 1576 1579 1580 1579 1578 1579 1577 1577 1576 1575 1573 1572 1571 1569 1568 1567 1564 1564 1563 1562 1559 1556 1555 1552 1552 1551 1551 1550 1548 1547 1545 1544 1543 1541 1539 1537 1536 1536 1535 1535
1573 1574 1576 1575 1576 1578 1577 1577 1575 1576 1575 1574 1573 1571 1570 1570 1567 1565 1563 1562 1562 1562 1561 1559 1556 1554 1553 1552 1550 1548 1550 1549 1546 1543 1542 1540 1539 1537 1535 1534 1533 1532 1532
1571 1571 1574 1575 1575 1574 1575 1575 1573 1574 1575 1573 1571 1569 1567 1566 1564 1562 1559 1560 1560 1560 1558 1556 1554 1553 1552 1551 1549 1548 1549 1547 1546 1543 1541 1539 1537 1535 1533 1532 1530 1529 1528
1568 1571 1571 1573 1573 1572 1572 1571 1571 1572 1571 1570 1566 1564 1564 1564 1562 1561 1559 1558 1557 1557 1555 1554 1552 1551 1549 1548 1547 1546 1546 1544 1543 1541 1540 1537 1535 1533 1531 1528 1528 1526 1525
1567 1568 1569 1570 1570 1570 1569 1569 1570 1569 1566 1564 1562 1561 1561 1561 1560 1559 1559 1558 1556 1555 1554 1552 1550 1548 1546 1544 1543 1542 1542 1540 1539 1538 1537 1535 1532 1530 1528 1526 1523 1523 1522
1565 1566 1567 1568 1568 1568 1569 1567 1567 1564 1563 1561 1560 1559 1558 1558 1558 1557 1557 1556 1555 1553 1552 1549 1547 1545 1542 1540 1539 1538 1538 1537 1535 1533 1532 1532 1529 1528 1525 1522 1521 1519 1518
1562 1564 1566 1567 1567 1567 1565 1563 1563 1563 1562 1560 1557 1556 1555 1555 1554 1554 1555 1553 1552 1550 1548 1546 1543 1541 1539 1537 1535 1534 1533 1533 1531 1530 1528 1526 1526 1524 1522 1519 1518 1516 1513
1561 1564 1565 1565 1564 1562 1561 1561 1561 1561 1560 1558 1556 1553 1551 1551 1549 1549 1548 1548 1547 1547 1544 1542 1540 1538 1536 1534 1532 1530 1527 1526 1526 1525 1523 1523 1521 1520 1518 1516 1514 1513 1511
1561 1562 1562 1561 1561 1560 1560 1559 1558 1557 1556 1556 1554 1553 1550 1547 1545 1544 1544 1543 1543 1543 1541 1538 1536 1534 1533 1531 1528 1525 1523 1521 1519 1519 1518 1517 1516 1516 1514 1512 1510 1509 1506
1558 1558 1557 1556 1556 1556 1556 1555 1554 1553 1552 1551 1550 1549 1548 1546 1543 1539 1540 1540 1539 1538 1537 1535 1532 1530 1527 1525 1522 1520 1518 1515 1515 1513 1513 1511 1511 1510 1508 1507 1505 1503 1501
1553 1553 1553 1553 1553 1554 1553 1552 1550 1549 1547 1547 1545 1545 1543 1541 1540 1538 1531 1532 1532 1531 1530 1529 1528 1526 1523 1520 1518 1515 1512 1510 1509 1508 1507 1506 1505 1504 1502 1501 1499 1497 1495
1551 1551 1551 1552 1553 1550 1550 1549 1547 1543 1542 1542 1541 1539 1537 1535 1533 1532 1529 1526 1524 1523 1523 1523 1522 1520 1517 1515 1512 1510 1508 1506 1503 1502 1500 1499 1497 1496 1495 1493 1491 1489 1488
1548 1551 1552 1551 1548 1545 1545 1545 1542 1540 1536 1536 1535 1534 1531 1529 1526 1525 1522 1519 1516 1513 1513 1513 1516 1515 1512 1509 1507 1504 1502 1500 1497 1495 1492 1490 1487 1486 1485 1484 1482 1481 1479
1546 1544 1546 1547 1548 1547 1541 1538 1537 1536 1534 1532 1533 1531 1528 1526 1522 1520 1517 1514 1512 1510 1507 1507 1508 1507 1506 1504 1500 1499 1495 1492 1489 1486 1483 1480 1478 1476 1475 1474 1473 1472 1471
1542 1544 1543 1540 1542 1541 1537 1533 1532 1531 1530 1529 1529 1527 1525 1523 1521 1519 1517 1514 1512 1509 1504 1505 1504 1501 1500 1496 1493 1491 1486 1482 1478 1475 1473 1471 1469 1468 1466 1465 1464 1462 1461
1537 1538 1537 1538 1537 1535 1533 1531 1529 1528 1526 1526 1524 1522 1520 1519 1518 1517 1515 1512 1510 1509 1504 1501 1498 1494 1492 1489 1484 1480 1476 1472 1469 1467 1465 1463 1461 1459 1458 1457 1455 1453 1452
1533 1533 1531 1532 1533 1531 1529 1527 1525 1524 1523 1521 1520 1518 1516 1513 1512 1512 1511 1508 1507 1505 1501 1496 1493 1488 1484 1481 1477 1473 1468 1465 1463 1460 1458 1455 1453 1451 1450 1448 1446 1445 1444
1528 1527 1529 1529 1529 1527 1526 1524 1523 1521 1519 1517 1514 1513 1511 1509 1508 1507 1506 1505 1502 1499 1496 1491 1487 1483 1479 1476 1471 1466 1463 1460 1457 1454 1451 1448 1446 1444 1442 1440 1438 1437 1436
1523 1524 1525 1525 1524 1522 1522 1521 1519 1517 1515 1513 1511 1509 1508 1505 1503 1502 1501 1500 1497 1494 1490 1485 1480 1478 1473 1470 1465 1462 1458 1454 1451 1448 1443 1439 1438 1437 1434 1432 1431 1429 1428
1518 1521 1522 1521 1519 1517 1516 1515 1514 1513 1511 1508 1506 1505 1503 1501 1499 1497 1495 1493 1492 1488 1484 1480 1475 1472 1468 1464 1461 1457 1452 1449 1443 1440 1437 1433 1430 1429 1428 1425 1423 1422 1420
1514 1517 1517 1516 1515 1513 1511 1510 1509 1507 1505 1504 1502 1500 1498 1496 1493 1491 1490 1488 1486 1482 1478 1474 1470 1466 1462 1459 1456 1452 1448 1443 1438 1435 1432 1428 1426 1423 1421 1418 1416 1414 1412
1510 1512 1511 1510 1509 1508 1506 1505 1504 1502 1501 1498 1496 1494 1493 1491 1490 1488 1486 1483 1481 1476 1473 1469 1466 1461 1457 1455 1452 1447 1443 1439 1433 1431 1427 1422 1422 1417 1414 1411 1409 1407 1405
1508 1506 1505 1504 1502 1502 1501 1499 1497 1496 1495 1492 1490 1488 1486 1485 1483 1482 1480 1478 1476 1473 1469 1465 1461 1458 1453 1451 1447 1442 1439 1436 1432 1428 1426 1418 1416 1412 1409 1406 1404 1401 1398
1501 1500 1499 1498 1497 1496 1495 1493 1491 1490 1488 1487 1485 1482 1481 1479 1478 1476 1474 1473 1471 1467 1463 1461 1457 1454 1450 1447 1444 1440 1436 1431 1427 1425 1423 1415 1412 1406 1403 1400 1398 1396 1394
1498 1496 1494 1493 1492 1490 1488 1486 1486 1484 1481 1480 1479 1476 1475 1473 1472 1470 1469 1466 1464 1462 1459 1456 1453 1450 1446 1443 1440 1436 1432 1428 1421 1418 1418 1413 1406 1400 1397 1394 1393 1392 1391
1492 1491 1489 1488 1485 1483 1482 1481 1479 1477 1475 1474 1472 1470 1469 1468 1466 1465 1463 1461 1458 1456 1454 1452 1449 1446 1443 1439 1436 1433 1429 1424 1421 1414 1413 1410 1403 1400 1393 1390 1390 1389 1386
Wind_Speed
8 10 10 9 10 9 8 6 7 9 11 12 13 15 15 12 13 14 15 13 14 15 13 10 10 8 10 16 17 17 17 17 16 16 17 16 14 14 16 18 19 20 18
11 9 9 10 10 9 9 10 13 11 12 13 16 15 13 13 15 15 11 11 8 11 9 9 8 9 7 8 10 12 14 16 18 17 16 16 16 17 18 20 21 21 23
11 12 12 12 12 11 12 14 11 12 13 16 15 14 12 13 16 14 12 10 7 4 4 3 5 6 7 7 9 11 13 12 14 17 18 20 21 21 22 21 22 23 23
14 16 14 13 12 12 12 10 12 14 16 16 17 18 16 14 9 9 10 7 4 3 4 4 8 10 10 12 10 11 12 14 14 16 18 22 20 19 20 23 20 21 23
15 13 11 11 11 9 9 12 14 16 17 19 20 19 17 18 6 6 6 4 5 3 1 6 10 12 14 13 13 11 12 13 15 15 17 16 19 19 18 22 22 21 22
12 11 10 10 8 9 10 12 14 18 19 21 20 19 21 2 11 10 8 9 9 10 10 13 14 14 13 14 15 13 13 15 14 15 17 18 16 19 21 19 21 22 21
11 12 11 8 9 9 10 14 17 18 19 19 20 22 20 4 10 2 19 15 18 20 20 20 19 17 15 14 14 13 14 16 15 15 16 16 18 19 19 21 20 22 24
13 13 10 10 10 11 14 16 16 17 17 19 20 23 8 18 9 26 11 24 20 19 18 20 19 18 18 18 19 21 20 16 16 18 17 16 17 18 19 21 22 23 24
14 11 9 10 12 14 15 15 16 17 18 20 21 16 9 7 25 16 27 13 10 20 26 24 21 21 19 22 24 26 22 19 19 19 18 17 19 21 21 22 23 25 25
13 11 12 13 14 15 16 17 18 19 21 22 18 17 18 19 22 21 10 20 22 19 24 26 25 23 23 25 27 23 21 21 21 21 19 18 21 23 23 24 25 25 26
16 16 15 13 13 16 18 17 18 21 23 22 21 19 21 22 24 24 28 23 25 25 21 21 23 22 26 26 26 22 22 24 22 23 20 20 22 25 26 27 27 28 29
17 16 14 13 15 17 18 19 22 22 21 22 22 22 20 21 23 25 29 29 28 27 24 21 23 24 25 24 16 22 20 24 26 25 24 22 24 28 30 30 29 29 30
19 15 13 14 18 20 20 23 22 22 21 21 22 22 20 19 22 26 25 25 28 28 23 22 21 22 19 17 20 21 22 24 27 31 34 37 37 33 32 32 32 31 31
18 17 15 18 18 19 19 21 23 21 19 20 21 21 21 23 24 26 22 20 23 24 24 20 23 19 19 19 22 26 32 35 37 40 42 42 35 28 29 29 29 29 29
14 16 14 15 18 24 23 22 21 20 21 23 26 28 27 24 21 19 15 14 13 14 28 24 19 27 31 33 34 34 36 38 39 38 36 28 23 23 24 24 25 26 27
21 14 18 14 20 20 21 22 19 20 24 27 26 21 17 16 17 19 19 17 17 20 25 28 32 35 36 36 35 34 34 32 31 27 24 24 25 23 22 23 24 25 27
18 20 17 17 20 22 22 22 22 23 25 28 21 16 16 17 15 14 14 17 20 23 28 34 33 36 33 33 33 28 24 23 22 23 24 23 24 24 23 23 23 23 23
22 13 19 18 21 23 25 24 22 24 25 26 20 19 17 15 17 20 22 24 25 24 26 33 33 30 31 31 25 23 22 22 22 23 24 25 24 24 24 25 25 25 27
9 18 18 18 22 24 24 21 23 26 25 23 21 19 19 20 19 22 23 23 24 27 25 28 31 32 33 27 26 24 23 23 23 28 31 28 25 22 20 21 22 23 24
12 13 18 19 23 26 21 20 23 26 26 23 20 20 21 22 25 23 23 25 27 24 25 28 32 34 31 28 24 24 25 27 33 24 20 18 16 18 22 24 25 25 26
7 14 14 20 23 23 23 22 25 27 25 22 22 22 23 24 24 23 25 23 24 24 27 29 32 31 30 28 25 27 30 33 26 22 25 24 20 16 19 20 21 21 23
4 13 24 20 23 26 26 26 24 25 25 21 23 23 23 22 23 23 23 22 22 24 26 29 29 28 27 26 29 31 31 27 29 24 26 23 22 21 20 18 19 18 18
16 23 16 23 24 25 25 25 23 23 24 25 23 24 23 23 22 23 24 21 22 23 24 25 26 24 27 28 28 23 22 23 26 27 28 31 24 23 19 18 17 17 19
15 19 23 23 22 27 27 25 23 23 25 26 25 26 21 24 23 24 22 23 22 22 23 21 20 21 20 20 19 19 22 22 26 27 23 30 27 28 24 17 11 8 8
20 17 19 24 27 28 27 23 22 25 26 24 24 23 21 24 24 22 22 23 22 21 20 17 15 15 16 15 15 18 20 24 30 29 22 23 33 29 20 16 8 6 10
18 19 23 26 30 25 23 24 23 26 26 24 21 22 21 22 21 22 22 21 22 19 16 15 12 14 13 16 16 15 17 20 22 27 21 30 28 22 21 18 13 17 15
Wind_Direction
178 178 179 194 199 200 206 241 275 294 304 317 324 327 331 330 334 329 319 307 324 329 312 306 326 355 337 344 340 335 340 337 329 324 320 309 297 297 296 281 274 273 275
198 199 213 205 203 213 246 261 299 306 318 323 328 327 330 332 327 320 301 299 339 347 312 313 318 330 348 10 11 15 13 4 359 353 341 332 317 303 309 295 284 278 274
218 214 230 236 236 246 266 277 302 310 312 310 318 341 344 337 322 326 318 288 317 301 276 280 321 327 326 1 345 348 358 358 350 335 325 323 317 308 295 310 302 286 283
222 227 239 235 244 253 271 289 300 303 310 324 344 348 350 356 335 332 344 1 314 167 218 292 325 323 319 315 326 330 330 338 340 329 321 316 310 320 317 305 317 316 289
220 221 223 233 248 266 285 293 299 310 326 333 339 341 344 344 322 329 319 360 30 58 166 328 323 319 319 321 327 336 330 329 325 311 310 315 310 308 317 317 308 316 315
207 205 218 236 253 268 278 291 308 325 327 328 334 336 338 357 335 303 296 302 308 306 305 310 316 323 327 328 327 332 326 323 312 310 302 303 308 310 316 315 315 317 318
203 216 224 236 256 275 298 316 321 320 320 325 331 330 339 220 331 45 321 299 302 302 305 305 306 305 306 314 322 332 323 319 315 314 314 300 296 303 310 313 312 307 311
213 220 235 261 288 301 310 309 309 313 321 328 324 327 324 315 237 322 321 321 308 303 308 305 305 306 305 306 312 315 312 310 304 304 302 297 300 304 307 306 306 303 300
213 224 254 274 283 290 295 297 311 318 319 317 316 316 318 292 309 314 318 314 283 303 305 297 300 298 300 302 308 313 308 303 304 298 297 293 295 299 301 300 300 300 294
220 241 253 266 281 290 298 301 308 310 309 310 305 305 305 299 306 310 313 302 304 301 300 291 298 301 302 306 314 311 314 310 307 298 295 292 294 297 296 296 295 294 294
228 246 261 266 273 286 286 286 293 297 303 302 301 302 302 304 306 306 311 309 300 302 295 293 303 292 296 297 304 298 306 306 306 299 294 293 294 295 294 292 292 289 285
222 228 240 255 268 280 273 285 295 298 297 295 294 293 297 299 305 303 303 300 298 306 300 292 297 295 300 309 296 300 295 292 291 288 291 296 295 294 292 289 286 285 283
217 227 244 256 261 271 283 294 299 298 297 294 293 291 290 286 292 298 294 289 291 299 297 298 297 299 308 288 295 292 285 286 283 285 290 295 296 294 288 285 283 280 278
212 222 250 276 292 299 299 303 305 307 312 313 307 300 292 292 296 296 292 286 296 293 296 301 308 306 301 293 291 289 290 291 292 292 293 294 295 291 286 284 281 280 278
228 272 272 273 292 296 302 303 307 309 315 314 306 301 302 304 301 290 280 271 289 306 305 311 306 307 305 304 301 297 294 294 295 298 299 297 294 292 288 285 281 279 275
258 252 275 313 295 301 308 309 309 310 311 310 311 309 308 299 299 300 299 294 294 296 296 300 304 307 309 307 305 302 301 300 300 299 295 291 293 292 288 286 282 279 277
254 279 324 299 303 310 312 306 303 306 309 317 312 299 295 294 294 291 289 290 294 296 297 300 307 309 308 310 309 304 305 306 303 300 298 295 290 286 284 285 286 286 281
283 309 289 291 302 309 314 302 301 303 306 315 303 292 290 289 294 296 296 298 299 302 306 308 310 312 313 316 316 311 309 309 308 306 303 298 295 292 285 283 285 286 287
285 276 275 286 304 313 306 299 299 299 304 312 302 295 294 291 290 294 296 298 298 301 307 310 311 315 315 317 316 313 313 312 312 311 309 300 288 289 287 282 282 284 291
252 263 284 306 313 310 306 297 297 296 303 310 295 291 291 291 296 294 294 296 301 306 312 315 313 313 314 318 319 321 321 320 318 322 329 333 313 287 285 285 281 280 283
272 289 311 305 297 304 300 298 295 295 296 301 288 287 292 299 295 293 296 300 300 310 315 315 312 311 313 316 319 318 315 321 319 327 337 332 330 315 303 294 281 280 279
253 293 295 299 298 294 295 295 292 294 290 290 282 285 290 300 296 294 297 300 305 311 313 314 310 308 307 307 311 312 315 318 320 331 329 324 334 323 323 303 291 284 285
280 295 296 282 292 292 294 295 295 287 289 295 286 285 288 298 295 292 295 296 302 304 309 309 306 304 304 309 311 315 317 314 313 311 322 318 324 321 329 315 310 295 284
285 281 281 293 296 297 295 295 293 283 289 293 285 278 290 296 292 288 289 294 299 307 310 307 303 305 305 310 310 310 314 308 302 308 323 315 326 320 319 314 309 333 325
290 298 297 298 296 296 293 295 291 286 288 295 289 283 291 297 290 284 287 294 302 310 307 307 305 313 310 300 297 299 304 308 308 312 327 320 332 329 325 321 302 295 309
301 299 295 294 296 295 293 295 292 291 292 289 289 286 291 297 285 282 287 295 301 308 305 306 305 318 321 322 304 296 304 309 310 315 323 328 338 341 322 326 314 312 302